Notices

What's New in latest Release from April 7th, 2021:

- Updated Glossary, including Speed of Maximum Gust, and Total Hourly Precipitation

- Updated national and regional climate services offices contacts and prices information

- Addition of station inventory lists for 1981-2010, 1971-2000, and 1961-1990 Normals.

If you haven't already, please take our survey and provide feedback about our website: https://eccc.sondage-survey.ca/f/LanguageSelection.aspx?s=442ca660-fcf1-47c0-95a9-59707d6fd709

Hourly Data Report for December 02, 2019

EUREKA CLIMATE
NUNAVUT
Current Station Operator: ECCC - MSC

79°59'21.000" N
85°56'02.000" W
10.00 m
2401199
71613
NEK

Download Data

Hourly Data (December 2019)
Hourly Data Report for December 2, 2019
TIME
LST
Temp Definition
°C
Dew Point Definition
°C
Rel Hum Definition
%
Precip. Amount Definition
mm

Wind Dir Definition
10's deg

Wind Spd Definition
km/h
Visibility Definition
km
Stn Press Definition
kPa
Hmdx Definition


Wind Chill Definition


Weather Definition


00:00 -32.0 -35.1 74 0.0 9 4   98.69   -37 LegendNANA
01:00 -30.5 -33.4 76 0.0 9 6   98.68   -37 LegendNANA
02:00 -30.6 -33.5 76 0.0 11 9   98.67   -39 LegendNANA
03:00 -30.1 -32.9 77 0.0 3 6   98.70   -37 LegendNANA
04:00 -30.1 -32.9 76 0.0 12 2   98.63   -32 LegendNANA
05:00 -31.9 -34.9 74 0.0 9 8   98.61   -40 LegendNANA
06:00 -31.2 -34.2 75 0.0 1 4   98.58   -36 LegendNANA
07:00 -31.8 -34.8 75 0.0 4 6   98.55   -39 LegendNANA
08:00 -32.4 -35.5 74 0.0 10 7   98.53   -40 LegendNANA
09:00 -32.3 -35.4 74 0.0 8 3   98.45   -36 LegendNANA
10:00 -32.6 -35.7 74 0.0 8 6   98.40   -40 LegendNANA
11:00 -33.4 -36.7 73 0.0 4 6   98.34   -40 LegendNANA
12:00 -33.2 -36.4 73 0.0 2 10   98.27   -43 LegendNANA
13:00 -32.9 -36.0 73 0.0 11 10   98.25   -43 LegendNANA
14:00 -32.3 -35.3 74 0.0 8 8   98.24   -41 LegendNANA
15:00 -32.0 -35.1 74 0.0 3 8   98.22   -40 LegendNANA
16:00 -31.7 -34.7 75 0.0 2 7   98.19   -39 LegendNANA
17:00 -32.1 -35.2 74 0.0 11 11   98.19   -42 LegendNANA
18:00 -31.3 -34.3 75 0.0 5 7   98.20   -39 LegendNANA
19:00 -31.0 -34.0 75 0.0 2 7   98.17   -38 LegendNANA
20:00 -31.5 -34.6 75 0.0 4 3   98.17   -35 LegendNANA
21:00 -30.9 -33.8 75 0.0 11 4   98.20   -35 LegendNANA
22:00 -32.4 -35.5 74 0.0 11 8   98.23   -41 LegendNANA
23:00 -32.2 -35.3 74 0.0 11 4   98.26   -37 LegendNANA

Notes on Data Quality.

Legend

  • E = Estimated
  • M = Missing
  • NA = Not Available*
  • [empty] = Indicates an unobserved value
Date modified: